Tracking 30743 objects as of 20-Jun-2025
HD Live streaming from Space Station
objects crossing your sky now

STARLINK-30114

Track STARLINK-30114 now!
10-day predictions
STARLINK-30114 is classified as:


NORAD ID: 56826
Int'l Code: 2023-079D
Perigee: 565.7 km
Apogee: 566.8 km
Inclination: 43.0 °
Period: 95.8 minutes
Semi major axis: 6937 km
RCS: Unknown
Launch date: June 4, 2023
Source: United States (US)
Launch site: AIR FORCE EASTERN TEST RANGE (AFETR)
Your satellite tracking list
Your tracking list is empty




NASA's NSSDC Master Catalog

Two Line Element Set (TLE):
1 56826U 23079D   25170.18744653  .00000307  00000-0  37794-4 0  9995
2 56826  43.0034  99.2488 0000792 253.4235 106.6520 15.02526770113566
Source of the keplerian elements: AFSPC